Theta_e
316 320 320 319 318 320 323 323 320 319 321 315 316 318 316 319 319 319 319 319 321 321 320 318 318 320 321 322 323 322 323 326 327 327 333 333 330 332 330 332 337 338 338 336 335 334 333 334 334 331 327 329 330 331 330 331 332 332 332 332 331 330 330 328 327 327 326 326 326 324 321 320 319 316 313 311 310 308 306 305 305 305 306 306 308 312 316 320 322 324 323 312 305 305 304 306 307
318 320 319 319 319 322 325 322 319 317 317 313 315 317 316 318 319 319 319 321 322 321 320 320 320 321 321 321 322 321 324 327 328 331 332 328 328 331 328 331 338 338 339 337 337 335 334 333 333 331 327 329 330 330 331 331 332 332 332 331 331 330 330 329 327 327 327 327 327 325 322 321 320 317 314 312 311 309 307 305 305 304 305 306 309 315 322 323 324 328 323 309 305 306 305 307 307
318 320 320 321 321 323 324 321 318 315 315 312 314 317 317 318 319 320 320 322 322 321 320 320 321 321 321 321 321 320 324 326 329 330 328 329 332 332 330 332 338 339 338 338 338 337 335 333 332 331 327 329 330 331 332 332 331 331 331 330 330 330 330 330 328 327 327 327 327 326 323 321 321 319 316 312 311 311 308 306 305 305 305 305 311 318 322 322 321 322 314 311 314 308 306 308 307
320 321 321 324 325 323 323 321 319 316 314 313 314 316 318 318 319 321 322 321 320 320 320 320 321 320 322 322 320 320 323 325 328 329 329 335 336 331 329 331 338 340 338 338 339 338 336 333 331 331 329 328 329 331 332 332 331 330 330 329 329 329 330 330 329 327 326 326 327 326 324 322 322 321 318 314 311 311 310 307 305 305 305 306 315 322 324 323 323 322 317 319 319 309 306 308 307
320 321 320 325 327 323 322 320 319 317 314 315 315 316 319 319 319 321 321 320 318 319 319 321 322 319 321 322 323 324 322 322 324 328 333 334 333 328 325 329 338 340 338 338 338 339 337 334 332 331 331 329 329 331 332 332 331 330 329 328 328 328 329 330 330 328 326 326 326 326 324 322 322 322 320 317 313 311 311 309 306 305 305 312 321 325 326 326 327 327 322 318 312 306 307 307 307
321 321 320 323 325 322 322 318 317 315 316 318 316 316 318 318 320 320 320 319 318 318 318 320 321 320 323 321 322 325 323 324 324 325 330 329 324 321 320 330 338 339 339 338 338 339 336 335 334 332 332 332 330 330 331 331 330 329 328 328 328 327 328 330 330 329 326 325 326 326 325 322 322 322 320 318 315 312 311 310 307 304 306 316 323 325 327 327 325 322 315 310 307 306 307 307 307
321 323 322 322 322 322 322 317 316 316 316 319 318 317 318 319 320 320 319 319 318 318 317 319 320 321 323 320 320 321 319 322 324 321 321 321 318 317 321 333 338 338 339 338 338 339 336 335 336 334 332 332 331 329 329 330 330 329 327 327 327 327 327 329 330 330 327 324 325 326 325 322 321 322 321 319 317 313 311 310 308 304 307 315 321 324 326 325 321 314 309 307 306 307 307 307 307
321 324 323 323 323 322 321 318 318 318 316 317 318 318 318 319 319 319 320 319 319 319 318 318 319 320 320 320 323 320 315 316 317 316 315 315 317 316 323 335 338 337 339 339 339 338 337 336 337 336 333 333 333 330 329 328 328 327 327 327 327 326 327 328 329 330 328 324 324 326 325 322 320 322 321 319 318 315 311 310 309 305 305 309 316 320 321 319 314 309 307 306 306 307 306 307 306
320 322 323 324 323 320 319 318 317 317 317 317 317 317 318 318 318 319 319 319 319 319 319 319 319 319 318 320 323 319 316 316 314 315 315 315 317 315 323 336 338 337 337 338 339 338 337 337 337 337 335 334 334 332 329 327 327 326 326 327 327 326 327 327 328 330 329 325 323 325 325 321 319 321 322 319 318 316 312 310 309 307 305 305 311 314 313 311 308 306 306 306 306 306 306 306 306
320 322 323 323 321 318 316 317 318 317 316 317 317 317 318 317 318 318 318 318 317 318 319 319 318 318 319 320 321 319 317 316 315 315 315 315 316 316 325 337 338 337 337 337 339 338 337 337 337 337 336 336 336 334 330 328 327 325 325 326 327 326 326 327 328 329 329 326 323 323 324 321 319 320 322 321 319 318 313 311 310 308 306 304 306 307 306 306 306 306 306 305 306 305 306 307 308
321 321 323 322 319 316 316 317 318 317 316 317 317 317 317 317 317 318 318 317 317 319 319 318 318 317 318 320 320 319 316 315 315 315 315 314 316 316 326 336 337 337 337 336 338 338 337 336 336 337 336 337 337 336 332 331 329 325 324 325 326 326 326 327 327 329 328 327 325 323 323 321 319 319 322 322 320 318 315 311 310 309 306 304 304 304 304 305 305 305 305 305 305 306 307 308 310
322 321 322 321 318 317 317 318 317 317 317 316 316 317 317 317 317 317 317 317 317 318 319 318 318 318 317 320 319 317 315 315 315 314 316 314 316 316 321 333 335 336 339 336 337 338 338 337 337 337 336 337 337 336 334 332 331 326 323 324 327 326 327 328 328 329 328 327 326 323 322 320 319 319 321 323 321 319 317 312 311 310 307 305 304 304 304 304 304 304 305 305 306 307 308 310 311
323 323 321 321 320 320 318 318 318 318 317 317 317 317 316 317 317 317 317 317 317 317 318 318 317 317 318 319 318 317 317 316 315 314 316 314 316 315 318 330 333 334 337 336 337 337 338 338 337 337 337 337 337 337 335 333 331 326 323 323 326 327 327 328 328 330 328 328 327 324 322 320 320 319 320 323 322 320 318 314 311 311 309 308 306 305 304 304 304 304 305 306 307 309 310 312 314
323 324 322 322 321 320 320 319 318 317 317 318 317 316 316 316 317 317 317 316 317 317 317 316 316 317 318 318 317 318 319 317 315 314 315 314 315 315 317 327 329 328 332 334 335 336 336 337 337 337 337 337 337 337 336 334 331 328 325 323 325 326 327 327 328 329 328 328 328 325 322 321 321 321 321 322 323 321 319 315 313 312 310 309 307 306 305 304 305 305 306 308 310 312 314 315 316
322 323 322 322 320 318 321 320 318 318 318 318 317 316 316 316 316 316 316 316 317 316 316 315 315 317 317 318 319 319 319 316 316 315 314 314 315 315 316 321 323 325 328 329 333 334 334 334 334 335 335 336 337 337 337 336 333 331 327 324 325 326 326 327 327 328 327 327 327 325 323 322 321 321 321 322 323 322 320 317 315 314 313 311 311 310 309 309 309 309 310 312 314 315 317 318 318
320 323 321 320 319 318 320 321 319 318 319 318 316 316 316 315 315 315 316 316 316 315 316 316 315 316 317 318 317 317 316 315 316 316 315 315 314 315 315 317 321 324 324 326 330 331 332 333 332 333 335 336 336 337 337 335 334 333 330 327 326 326 327 327 327 327 328 327 326 325 324 323 323 322 322 322 323 322 321 319 318 317 316 316 316 316 315 315 315 315 316 316 317 318 319 319 320
318 322 321 319 318 318 319 320 319 318 319 317 316 316 316 316 314 315 316 315 316 316 315 317 315 315 316 316 315 314 315 315 315 316 315 315 315 315 314 316 320 322 323 324 327 329 330 331 332 333 335 334 334 336 336 335 335 335 333 330 329 328 328 328 327 328 328 326 326 325 325 325 324 323 322 322 323 323 322 321 320 319 319 320 320 320 319 319 319 319 319 319 319 319 319 320 320
318 320 319 318 319 319 319 319 319 319 319 317 316 316 317 317 315 315 315 315 316 317 316 316 316 315 315 315 314 314 314 315 315 316 315 315 316 316 315 315 318 320 321 322 324 327 328 328 330 332 334 332 330 334 335 334 334 334 334 332 331 330 329 328 327 327 327 327 327 327 327 328 327 324 322 323 323 324 323 322 321 321 321 322 322 323 322 321 321 320 320 320 320 319 320 320 320
319 321 318 319 320 319 319 320 318 319 319 318 317 317 317 317 317 316 315 316 316 316 317 317 316 316 315 315 315 314 314 314 314 315 315 316 316 316 315 315 320 320 319 321 322 325 328 327 326 328 330 328 326 330 332 333 333 333 334 334 333 332 331 329 328 328 329 329 328 327 329 330 329 327 324 323 323 324 324 322 322 322 322 322 323 323 324 323 323 323 322 321 320 320 321 320 321
319 320 319 319 320 319 318 319 318 317 318 318 317 316 317 317 317 316 316 317 317 316 317 317 317 317 316 315 315 315 314 314 313 314 314 316 317 320 318 314 322 323 318 319 320 322 326 324 325 326 327 328 327 327 329 332 334 333 333 333 333 333 332 331 331 331 330 330 330 329 330 330 330 329 327 324 324 324 324 323 323 323 323 323 324 324 324 324 324 324 323 323 322 321 321 321 321
318 317 318 318 318 318 317 317 316 315 316 318 317 316 316 316 316 316 316 317 317 317 317 318 317 317 318 316 315 315 314 314 313 314 313 314 316 322 324 318 324 327 319 317 318 319 320 320 325 330 331 332 329 325 327 332 334 333 333 334 333 333 333 332 332 332 331 331 330 330 330 330 330 330 328 326 325 325 325 324 323 323 323 323 324 324 324 324 324 324 324 324 323 322 321 321 321
318 316 316 316 318 318 315 315 315 314 316 317 317 316 316 316 315 316 317 316 317 318 317 317 317 317 319 317 315 314 314 314 314 314 313 314 314 318 325 323 324 326 318 315 316 316 317 317 323 330 334 332 327 325 327 330 333 332 331 333 333 333 333 333 332 332 331 331 331 331 331 330 330 330 330 328 326 325 325 324 324 323 323 323 323 324 324 324 324 324 324 324 324 323 321 321 320
317 316 315 315 316 317 315 314 314 314 316 317 317 316 316 316 316 316 316 317 317 317 316 316 315 316 317 316 314 314 314 314 314 314 313 314 314 316 323 324 321 320 316 316 316 315 317 317 319 325 330 326 323 326 328 327 328 329 331 333 333 333 332 332 332 332 332 331 331 331 331 330 330 331 330 329 327 325 325 325 324 324 324 323 323 324 325 325 324 324 325 324 324 324 322 322 319
317 317 316 315 315 315 314 314 313 313 315 316 316 316 316 316 316 316 315 316 316 316 316 315 315 315 315 314 314 314 314 314 313 314 314 313 315 316 319 319 317 316 315 315 315 314 316 317 318 321 324 323 323 326 328 328 325 326 333 335 334 334 331 330 332 332 332 331 331 331 330 330 331 331 330 330 329 327 325 325 325 324 324 324 323 324 325 324 324 324 325 324 324 324 323 321 317
317 316 315 315 315 314 313 312 313 313 314 314 314 315 316 316 315 315 315 316 316 316 316 315 315 315 314 314 314 314 313 314 314 313 314 313 313 315 315 314 314 314 314 314 315 315 315 315 317 320 324 325 325 325 327 330 327 325 333 337 335 332 330 330 331 332 331 330 329 330 330 330 331 331 331 331 330 328 326 325 325 325 325 325 324 324 325 324 323 323 323 323 323 323 322 319 315
317 316 316 316 315 314 313 313 314 314 314 314 315 316 316 315 314 315 316 316 316 316 315 315 315 314 315 315 314 314 314 314 314 314 314 314 313 314 314 313 313 313 313 314 315 315 315 315 315 318 322 322 322 322 322 325 326 323 326 333 332 331 331 331 331 331 330 327 326 328 330 330 330 331 331 330 330 329 328 325 325 326 326 325 324 324 325 324 322 321 321 322 323 322 320 317 312
316 316 317 316 315 314 314 315 314 314 315 314 315 317 316 315 314 316 318 317 316 316 315 315 315 315 314 314 314 314 314 313 314 314 314 314 314 314 314 313 313 313 314 314 315 315 315 314 314 314 315 316 316 317 316 317 322 321 319 325 326 330 335 333 332 332 330 327 325 327 330 330 331 331 330 329 329 330 328 326 325 327 327 326 325 325 325 324 322 321 321 322 322 321 318 313 308
316 317 316 316 316 315 315 316 315 315 315 314 316 317 317 315 315 317 319 317 317 316 316 316 315 315 315 315 314 314 314 314 314 314 314 314 314 314 313 314 313 313 313 313 315 315 314 314 314 314 313 314 313 313 314 313 318 320 317 316 318 328 336 333 333 333 330 328 325 326 328 329 330 329 329 329 329 330 328 326 326 328 328 327 326 325 324 323 322 321 321 322 322 320 315 308 305
316 317 317 316 317 316 316 316 316 316 316 315 315 316 317 317 316 318 318 317 317 316 316 317 316 315 315 315 314 315 314 314 314 314 315 315 314 314 313 313 313 313 313 313 314 314 314 314 313 314 313 313 313 312 313 312 315 318 315 314 315 323 332 332 333 333 331 330 325 325 327 327 328 328 328 329 329 329 328 327 328 328 328 327 326 325 324 323 322 322 321 322 321 317 311 306 304
316 317 318 317 316 316 317 317 316 316 315 315 315 315 317 319 318 318 318 317 316 316 317 317 317 316 316 316 315 315 315 314 315 315 315 315 314 314 313 313 313 312 313 312 313 313 313 314 313 314 313 313 314 313 313 313 313 314 313 314 313 316 322 324 329 333 332 329 325 325 327 328 328 328 328 328 328 329 329 328 328 328 327 326 325 324 323 322 322 321 321 321 319 314 308 305 304
317 317 317 318 317 316 317 317 316 316 315 315 315 315 317 319 319 317 317 316 316 316 318 318 318 318 316 316 316 315 315 315 315 315 315 315 314 315 314 313 314 313 313 313 312 313 312 313 313 313 313 313 313 313 313 313 313 314 313 313 313 313 315 317 323 332 330 324 323 325 327 328 329 327 325 324 324 327 329 329 328 328 327 325 324 323 323 322 321 321 321 320 317 311 306 304 303
318 316 316 318 317 316 317 316 316 316 315 315 316 315 317 319 318 316 316 316 315 316 318 318 318 318 318 316 316 315 315 315 315 315 315 315 315 314 314 314 314 314 313 313 312 313 313 312 312 313 313 313 314 313 313 314 313 314 314 313 313 313 314 315 319 326 326 322 325 328 329 328 328 326 323 321 322 326 329 329 328 327 326 325 324 323 322 321 320 320 320 318 315 308 304 303 303
317 316 317 318 316 316 317 315 315 316 315 315 315 316 318 319 319 317 316 315 315 317 317 318 318 318 318 317 316 316 315 316 316 316 315 315 315 314 315 314 314 314 313 313 313 313 312 312 312 312 313 313 313 313 313 314 314 314 314 313 313 313 316 318 319 322 324 325 327 329 329 328 327 325 322 321 322 326 328 328 328 327 326 325 324 322 321 321 321 320 319 316 311 306 304 303 303
317 316 316 318 317 316 316 315 315 315 316 316 316 316 317 318 319 318 317 316 316 317 317 318 318 318 318 317 317 316 316 316 316 316 315 315 315 315 315 314 314 314 313 313 313 312 312 312 312 312 312 313 313 313 313 314 314 314 314 313 313 316 321 325 325 325 327 327 326 328 329 328 327 324 322 323 325 327 328 327 327 326 325 325 323 321 320 321 320 319 318 313 308 305 304 303 302
316 316 315 316 316 314 315 316 315 314 315 316 316 317 317 317 318 318 318 318 317 317 318 318 318 318 319 318 317 317 316 316 316 316 316 316 316 316 315 315 314 314 313 313 313 312 312 312 312 312 312 313 313 313 313 314 314 314 314 314 315 318 324 329 328 327 327 327 328 329 327 327 327 324 322 325 326 327 327 326 326 325 324 323 322 320 319 320 319 318 315 309 306 304 303 302 302
316 317 315 315 315 314 315 316 314 315 315 316 316 316 317 317 317 318 318 319 318 318 318 318 318 317 318 318 318 318 317 317 317 316 317 316 316 316 315 315 314 314 313 313 312 312 312 312 311 312 312 312 313 313 313 313 314 314 313 314 316 318 322 326 327 325 325 327 329 328 327 327 327 325 324 325 324 323 324 325 324 323 323 323 322 320 319 319 319 316 312 307 304 303 303 302 301
315 316 316 315 315 314 316 317 314 314 315 315 317 316 317 317 317 318 318 318 318 319 319 318 318 318 318 318 318 318 317 317 317 317 317 316 316 316 316 315 314 314 313 313 313 312 312 312 311 312 312 312 313 312 313 313 313 314 313 315 317 318 319 322 324 325 325 327 328 328 327 326 326 325 325 324 322 322 322 322 322 322 322 322 321 319 319 319 318 314 309 305 303 303 302 301 300
315 315 315 315 315 315 316 316 314 314 314 315 316 316 317 317 317 317 318 318 318 318 319 319 318 318 318 319 318 318 318 317 317 317 317 316 316 316 316 315 315 314 314 313 313 313 312 312 311 311 311 312 312 312 313 313 313 313 314 317 319 320 321 323 325 325 325 326 326 325 325 325 326 325 323 322 321 321 321 320 320 320 321 321 320 319 319 318 314 310 306 303 303 302 301 300 300
315 316 316 315 316 316 316 315 314 313 314 315 316 316 316 317 316 317 318 317 318 318 318 318 318 318 318 319 319 319 319 318 317 317 317 316 316 316 315 315 315 315 314 314 313 313 312 312 311 311 311 312 312 312 312 313 313 313 315 320 321 321 322 323 324 325 325 326 324 324 324 325 325 323 321 321 320 320 320 320 319 319 320 320 318 319 318 314 309 306 303 302 302 301 300 300 299
316 316 315 315 317 316 313 314 314 314 314 314 316 316 316 317 317 318 319 319 319 319 319 319 318 319 318 319 319 319 319 318 318 317 316 316 316 315 315 315 315 315 314 314 314 313 313 312 312 311 311 312 312 312 313 313 313 314 317 321 323 323 323 323 325 326 325 325 324 324 324 324 324 321 320 320 319 319 319 319 319 320 320 318 318 316 313 308 305 303 302 301 301 301 300 299 299
316 318 315 315 318 316 313 315 315 315 315 314 316 316 316 319 320 320 320 320 319 319 319 319 319 319 318 319 318 318 319 318 318 317 316 315 315 315 315 315 315 314 314 314 314 313 313 312 312 311 311 311 312 312 312 313 313 316 320 323 324 324 323 323 325 326 325 324 323 323 323 323 322 320 320 319 319 319 318 319 319 319 318 316 315 311 306 303 302 301 300 300 300 300 299 299 298
315 318 317 315 317 316 316 317 316 314 315 315 317 314 314 318 320 321 320 319 319 320 320 320 320 319 319 319 318 317 317 317 317 316 316 315 315 314 314 314 314 314 313 314 313 313 312 312 311 311 311 311 312 312 312 313 315 317 321 323 323 324 323 323 325 325 325 323 322 322 322 322 321 320 320 319 319 319 319 319 318 318 317 315 312 307 302 301 301 300 300 299 299 299 298 298 298
313 317 318 317 317 317 316 318 316 313 314 317 317 314 314 316 317 318 320 319 318 319 320 320 320 320 321 320 318 317 317 316 316 315 315 316 315 315 314 314 313 313 313 313 313 312 312 312 311 311 311 311 311 312 312 314 316 319 322 323 323 322 322 322 324 324 324 323 321 321 321 321 321 320 320 319 319 319 318 318 317 317 316 312 307 303 300 300 300 299 299 299 299 299 298 298 298
315 317 317 317 317 317 318 318 316 315 317 318 318 317 315 315 316 318 319 318 318 318 319 320 319 320 321 320 319 318 317 316 315 315 314 315 316 315 314 314 314 313 313 313 312 312 312 312 311 311 311 311 311 311 312 314 317 319 321 321 321 321 321 322 323 323 323 322 321 321 321 320 320 319 319 319 319 318 318 317 317 317 314 307 302 300 300 300 300 300 300 299 298 298 298 298 297
317 316 316 317 317 318 319 318 316 318 318 316 318 319 315 314 317 319 318 317 318 318 317 318 319 321 320 319 319 317 316 315 314 314 314 314 315 315 314 314 314 313 312 313 312 311 312 311 311 311 310 311 311 311 312 314 317 318 319 319 320 321 321 321 322 323 322 322 321 321 320 320 319 318 318 318 318 317 316 316 317 314 308 302 299 299 300 301 301 300 300 299 298 298 299 298 297
316 315 316 318 318 318 318 317 317 317 317 316 318 318 313 312 316 318 317 316 317 318 317 319 321 322 319 318 317 316 316 315 315 315 315 315 315 315 314 314 313 313 312 312 312 312 312 311 311 310 310 311 311 311 312 315 318 319 319 319 320 321 321 321 322 322 322 322 321 321 320 319 318 317 317 317 317 316 315 316 314 307 301 299 299 300 301 301 301 300 299 299 299 299 299 299 298
316 317 318 318 318 318 317 317 317 315 315 317 318 317 313 312 315 319 317 317 318 318 317 319 321 321 320 318 317 316 316 316 316 316 316 316 316 315 314 314 314 313 313 312 312 312 312 312 311 310 310 310 311 311 313 316 318 319 319 319 321 321 322 322 322 322 322 321 321 320 319 318 317 317 316 317 317 315 313 311 306 301 299 299 300 300 300 300 300 299 299 299 299 299 299 299 299
318 319 317 316 317 317 317 317 317 315 315 316 316 318 317 313 315 319 318 317 318 319 318 319 320 322 321 317 317 317 317 317 317 317 317 317 317 316 315 314 314 313 314 313 313 312 312 312 311 310 310 310 311 311 313 315 318 318 317 319 321 322 322 321 321 322 321 321 320 319 318 317 316 316 316 316 315 312 307 304 300 299 299 299 299 300 300 299 300 300 299 299 299 299 298 298 298
318 317 315 314 314 315 316 317 318 316 315 315 314 316 318 315 316 318 318 317 318 318 319 319 319 321 321 318 317 317 317 317 316 316 317 317 317 317 315 315 314 314 314 314 313 313 313 312 311 310 310 310 310 311 312 315 316 316 316 319 321 320 320 320 320 321 321 320 319 317 316 316 316 316 315 315 313 307 301 300 299 298 299 299 299 300 300 300 299 299 299 299 299 298 298 297 297
316 316 315 314 313 314 316 316 316 315 314 313 313 316 316 315 316 317 317 318 318 319 319 319 319 319 320 319 318 317 317 317 316 316 316 317 317 316 316 316 315 315 314 314 313 313 313 313 311 310 310 310 310 310 312 313 315 315 316 318 319 318 317 319 320 320 320 319 317 316 315 315 316 316 314 313 310 302 299 298 298 298 299 299 299 299 299 299 299 299 299 298 298 298 298 297 296
316 316 316 315 313 314 315 314 314 315 314 313 313 315 316 315 315 317 318 318 318 318 318 318 319 318 318 318 317 317 316 316 317 316 316 317 317 316 316 316 315 315 314 314 313 313 313 313 312 310 310 310 310 311 311 312 314 316 317 318 318 316 317 319 319 319 319 318 316 315 315 315 316 315 314 311 306 300 298 298 298 298 299 298 299 299 298 299 299 299 298 297 297 297 297 296 295
316 317 317 317 316 314 313 313 314 314 313 314 314 314 315 316 316 316 317 317 317 317 318 317 317 318 317 317 317 316 316 316 316 316 316 316 317 316 316 315 315 314 314 314 313 313 313 313 312 310 310 310 310 311 311 312 314 317 318 318 317 315 317 318 319 319 318 317 316 315 315 315 316 315 313 309 303 298 298 298 297 298 298 298 298 298 298 299 299 298 297 296 296 295 295 295 294
316 317 317 316 316 315 314 313 313 312 313 314 315 314 315 315 316 317 317 316 316 317 317 317 317 317 317 317 317 317 316 316 316 315 315 316 316 316 315 315 315 314 314 314 313 313 313 313 312 310 309 309 310 311 312 312 315 317 318 317 316 315 317 318 318 318 317 316 315 315 314 314 315 315 312 306 301 298 298 297 297 297 297 297 297 297 298 298 297 297 296 295 295 294 294 294 294
316 316 316 315 315 315 313 313 314 314 315 315 314 314 314 313 316 319 318 317 317 317 317 317 317 318 318 318 317 317 317 317 316 315 315 315 315 315 315 315 315 315 315 314 313 312 312 312 312 311 310 309 309 310 311 312 314 317 318 317 315 316 317 318 318 317 317 315 315 314 313 313 314 314 311 305 299 298 298 297 297 297 297 297 297 297 297 297 296 296 295 294 294 294 294 294 293
315 315 316 315 315 315 313 313 314 315 316 316 315 314 314 314 315 316 317 317 317 317 317 317 317 318 319 318 317 317 317 317 316 315 316 316 315 316 315 315 316 316 316 314 313 312 311 312 312 311 310 309 309 310 310 311 313 315 316 316 315 316 318 318 317 317 316 315 314 313 312 312 313 313 311 304 299 298 297 297 296 296 297 297 297 296 296 296 296 295 295 294 294 294 293 293 293
313 314 315 315 315 315 314 314 314 314 315 315 315 314 314 315 316 315 316 316 316 317 317 317 317 318 319 319 319 319 318 317 316 316 316 316 316 316 316 316 317 317 316 315 313 312 312 311 311 311 310 309 309 310 310 311 312 313 314 315 315 317 318 317 316 316 315 314 313 311 311 312 312 313 311 304 298 297 297 296 296 296 296 297 296 296 296 296 296 295 294 294 293 293 293 292 292
312 312 314 314 314 314 314 316 314 314 314 314 315 315 314 315 317 316 317 317 316 317 317 318 319 319 319 320 320 320 318 317 316 316 317 316 316 316 316 317 317 316 315 315 314 313 312 312 311 311 310 309 309 309 310 311 312 313 313 314 316 317 318 317 316 315 315 313 312 311 311 311 311 312 310 303 298 297 297 296 296 296 296 296 296 296 296 296 296 294 294 294 294 293 293 292 292
314 313 314 315 315 314 315 316 315 314 315 315 315 316 315 316 317 316 316 316 317 318 318 318 319 319 320 320 319 318 318 317 316 316 317 317 317 317 317 317 317 316 315 315 315 314 313 313 312 311 310 310 309 309 309 310 312 313 314 315 316 317 317 316 315 315 314 312 311 311 311 310 310 310 307 301 298 297 297 296 296 296 296 296 296 296 296 296 296 295 294 294 294 294 293 293 292
Wind_Speed
9 9 7 6 6 4 2 5 3 2 1 4 4 2 4 4 4 5 6 5 4 5 4 3 3 1 2 4 6 5 6 8 7 5 4 8 12 11 13 13 12 12 10 10 8 8 8 8 10 9 11 11 10 10 9 9 8 8 8 8 8 8 9 10 10 11 11 12 14 14 15 15 14 13 12 11 10 11 11 12 13 13 13 12 12 13 14 14 15 15 13 13 13 14 15 16 17
9 9 7 5 5 1 2 4 3 3 3 4 3 2 6 4 4 5 5 4 5 6 5 5 4 2 3 4 5 4 5 9 9 10 10 12 12 10 13 13 12 12 10 9 9 9 9 9 9 9 11 11 10 10 9 9 8 7 7 8 7 7 8 9 9 9 10 11 13 13 14 14 14 13 12 11 10 10 10 11 12 12 12 13 13 14 15 15 16 15 12 13 13 14 16 17 18
10 8 6 4 2 4 3 4 3 2 3 4 4 4 5 5 5 6 7 8 9 8 6 6 4 3 2 2 1 3 5 8 9 12 12 12 10 9 10 13 13 12 11 10 9 10 10 9 9 9 10 10 10 9 9 8 7 7 7 7 6 6 6 7 8 8 9 10 12 12 13 13 14 13 12 11 10 10 10 10 11 11 12 13 13 14 15 15 15 13 12 14 14 15 17 17 19
10 8 7 3 4 5 4 3 2 2 2 4 4 6 5 4 7 8 9 10 10 7 6 4 3 2 3 2 3 2 5 7 8 11 10 9 9 8 10 15 15 11 12 11 9 10 10 10 9 9 10 10 10 9 9 8 7 7 6 6 6 5 5 5 6 7 9 10 11 12 12 13 13 13 13 12 10 9 9 9 9 10 11 13 14 14 15 15 16 15 14 15 15 16 17 18 19
9 7 7 3 6 2 2 2 1 2 3 3 4 7 4 6 9 9 10 9 8 5 3 2 2 3 1 2 3 2 5 5 7 10 7 8 10 8 11 15 14 11 12 12 9 9 10 10 9 9 9 9 9 9 9 8 7 7 6 6 6 5 4 4 5 7 8 9 10 11 12 12 13 13 13 13 11 9 8 8 8 9 11 14 15 16 17 16 15 14 14 15 16 17 17 18 20
7 4 4 2 4 1 3 2 1 3 5 4 4 8 5 8 10 11 11 8 5 2 1 1 0 2 3 2 1 2 5 5 5 6 6 7 9 8 12 14 11 11 12 12 9 8 10 10 9 9 8 8 8 9 8 7 7 6 6 6 5 5 4 4 4 5 8 9 10 11 11 12 12 13 13 13 12 10 8 8 8 9 11 14 15 17 17 13 12 12 13 15 17 17 17 19 21
7 3 4 3 2 2 3 2 2 3 4 5 5 8 7 9 10 12 10 7 4 3 2 1 1 2 3 4 2 3 6 6 5 6 7 7 8 9 11 11 10 11 11 11 9 8 10 10 9 9 9 8 8 8 8 7 7 6 6 5 4 4 3 3 3 4 6 8 9 9 10 11 12 12 13 13 13 12 10 9 8 9 10 11 13 15 15 12 11 12 14 16 16 17 18 20 21
8 3 4 4 2 2 2 4 3 3 4 4 5 6 8 10 10 10 9 6 4 4 4 3 4 4 4 5 2 5 6 6 7 7 7 7 8 9 12 10 9 11 11 11 10 9 10 11 9 8 8 7 7 8 8 7 6 6 7 6 4 4 3 2 3 3 5 7 8 8 8 10 11 11 12 12 13 12 11 9 9 10 9 10 12 14 14 12 13 14 15 16 16 17 19 20 21
5 2 4 4 1 2 1 3 3 3 4 5 4 6 8 10 9 8 7 5 3 4 4 4 4 2 5 6 3 5 6 6 7 7 8 7 8 9 12 12 8 9 10 11 9 9 11 11 9 8 8 7 7 7 7 7 6 7 8 7 5 4 3 2 2 2 4 6 7 7 8 9 10 10 11 12 12 12 11 10 9 9 10 10 12 14 14 14 14 15 15 16 17 18 19 20 21
5 3 3 3 2 2 2 3 3 4 5 4 5 7 7 9 8 6 7 5 4 5 4 4 4 1 3 5 5 4 7 7 8 7 8 8 8 9 12 12 9 8 9 10 9 9 10 10 9 9 9 8 7 7 8 7 7 8 8 8 6 4 3 1 2 2 2 4 5 6 7 9 9 10 10 11 11 11 11 10 10 10 10 11 13 14 15 15 16 15 16 16 17 18 20 20 21
5 4 3 3 2 1 2 3 4 4 6 5 5 8 8 9 8 6 5 4 5 4 5 6 4 2 3 3 5 5 8 9 9 8 8 8 9 11 12 12 12 9 9 10 9 10 10 9 10 11 10 9 8 8 8 7 7 8 8 8 6 4 3 2 1 1 2 3 4 5 6 7 8 8 9 10 11 11 10 9 9 10 10 11 12 13 14 15 16 16 16 17 17 19 19 20 20
4 5 4 4 1 1 2 3 4 5 6 6 6 8 8 9 8 7 6 5 6 5 6 7 2 2 5 3 3 6 9 9 10 10 9 9 9 11 13 13 14 12 10 12 12 11 10 8 10 11 11 10 9 8 8 7 7 8 8 8 7 5 4 3 2 2 1 2 2 4 5 6 7 7 8 9 10 11 10 9 8 9 10 11 12 13 14 15 15 15 16 16 17 18 18 19 19
4 4 5 3 1 2 2 2 4 4 5 6 7 10 9 10 8 6 7 5 7 6 6 7 2 2 3 4 4 6 9 11 11 10 10 10 10 11 13 12 13 14 13 14 14 14 12 9 9 10 10 11 10 9 9 8 7 8 8 9 8 6 5 4 3 3 1 0 1 2 4 5 6 6 7 7 9 11 11 9 8 8 9 10 11 12 14 14 14 15 15 16 16 17 18 18 19
2 2 4 1 1 1 1 2 3 3 4 7 9 12 11 9 6 4 6 6 6 4 5 8 4 3 3 4 5 7 10 13 11 11 11 11 11 12 12 12 14 16 16 16 15 15 15 12 10 10 10 11 10 10 10 8 8 8 8 9 9 8 6 5 5 4 2 1 1 2 3 3 4 5 6 7 8 10 11 11 10 9 10 10 11 12 13 13 14 14 14 15 15 16 17 18 18
1 1 3 1 2 2 2 1 2 3 3 10 10 13 12 6 4 3 5 4 4 4 4 6 6 3 1 1 6 8 11 13 12 13 12 12 12 12 13 14 17 17 16 17 16 15 15 14 13 11 10 10 9 9 10 9 9 9 8 9 9 8 7 7 6 5 4 3 3 3 3 2 3 3 5 5 6 8 10 11 11 11 11 12 12 13 13 14 14 14 14 14 15 15 16 17 18
3 2 4 2 3 3 3 2 2 3 4 10 10 13 11 7 7 5 6 3 2 6 5 3 7 4 3 2 6 7 10 12 13 13 13 13 12 13 13 15 18 19 17 16 17 17 15 15 14 12 12 11 10 9 9 10 10 10 9 9 8 8 8 8 7 7 6 5 5 4 3 3 2 1 2 4 4 6 8 10 11 12 12 13 13 13 13 13 14 14 14 14 14 14 15 16 16
4 3 4 3 4 3 4 5 3 1 5 10 11 13 10 7 8 7 7 7 2 5 6 4 8 7 2 2 5 4 7 12 13 13 14 14 13 14 14 14 16 18 19 18 19 18 17 17 15 14 13 13 12 10 9 9 10 10 10 10 10 9 10 10 9 8 7 7 6 5 4 4 3 2 0 1 2 3 6 8 9 10 11 12 12 12 12 12 12 12 13 13 13 13 13 14 15
4 3 5 3 3 2 2 4 3 2 4 10 12 13 10 6 9 8 6 8 6 5 7 8 8 9 9 6 5 4 5 10 13 15 15 15 15 15 15 14 14 16 18 19 20 20 19 18 18 17 15 13 12 12 11 9 10 11 11 11 11 11 10 10 10 10 9 8 6 5 4 4 4 3 2 1 1 1 4 6 8 9 9 10 10 10 10 10 11 11 11 12 11 11 11 11 12
3 3 5 2 2 4 3 3 4 3 2 10 12 11 8 4 7 9 6 8 9 8 8 10 9 10 12 11 10 9 6 8 12 15 16 16 16 16 16 15 13 16 18 18 19 21 21 19 19 18 16 14 12 13 14 11 10 11 12 12 12 11 11 10 10 10 10 8 7 6 4 3 5 6 3 2 2 3 3 5 7 7 8 8 8 9 9 9 10 10 10 10 10 9 9 10 10
2 3 4 1 5 5 5 5 6 5 2 8 11 9 6 3 6 8 7 7 8 9 9 10 11 12 15 14 13 12 9 10 11 14 17 17 17 15 16 16 13 15 18 19 19 20 20 20 20 18 17 15 13 15 16 13 12 12 13 13 13 12 11 11 11 11 10 9 8 8 7 6 8 9 6 4 3 4 5 6 6 7 7 7 7 8 9 9 9 9 9 9 8 8 8 9 9
1 2 2 4 3 3 5 5 7 5 2 5 9 9 7 5 5 7 7 6 7 10 10 10 9 9 14 14 12 13 12 12 12 14 17 18 18 16 16 16 13 14 17 18 19 19 20 21 20 19 18 17 15 16 17 17 16 14 14 14 14 12 12 13 12 12 12 11 9 9 9 10 10 11 8 6 5 5 7 7 7 7 7 8 7 7 8 9 8 8 8 8 7 7 7 8 8
2 1 3 4 2 2 5 3 5 5 3 5 8 8 7 6 6 8 9 8 3 1 4 7 6 4 9 11 10 12 13 14 14 15 17 18 19 18 17 16 15 17 17 15 17 20 21 22 21 21 20 19 17 16 17 19 19 17 16 17 15 13 13 14 14 14 13 12 11 11 12 12 12 12 11 9 7 6 6 8 9 8 8 8 8 7 7 8 8 8 7 6 7 7 7 7 7
1 2 4 4 4 4 5 2 3 3 2 4 5 5 5 6 8 8 12 14 5 3 2 5 6 5 8 10 11 11 13 14 14 15 17 18 20 19 18 18 19 20 17 15 17 19 21 22 21 21 21 20 17 17 17 19 20 18 18 21 18 14 15 15 16 16 14 13 12 13 13 14 14 14 14 13 11 8 7 7 9 10 10 9 9 7 7 7 7 6 5 5 5 5 5 6 6
3 2 5 4 5 5 4 3 4 3 1 2 2 3 5 7 6 4 11 18 12 11 12 9 8 8 8 9 10 11 12 13 13 15 16 19 20 20 21 21 21 21 18 17 17 16 18 20 19 19 20 19 19 19 20 19 19 18 19 22 20 16 16 17 18 18 16 15 14 13 14 16 16 16 16 15 14 12 10 9 8 10 10 9 9 9 7 6 6 5 4 4 4 3 4 5 6
2 4 6 4 5 5 5 5 4 3 1 1 2 5 5 5 4 5 13 16 12 15 18 15 14 12 11 11 11 12 13 13 14 16 17 20 21 22 24 23 23 21 19 18 17 15 17 18 18 18 20 21 21 21 23 22 20 21 22 22 21 20 20 18 18 19 17 16 17 17 16 16 16 18 17 15 15 13 12 11 9 11 10 9 10 10 8 5 4 4 4 4 4 4 5 6 7
2 6 7 6 6 6 5 5 4 3 2 2 4 6 4 3 6 10 17 16 13 17 19 18 17 17 16 15 15 15 16 16 16 17 19 20 21 22 23 23 23 21 19 19 17 16 17 17 18 19 22 23 23 23 25 24 21 24 27 26 24 22 23 21 19 20 19 17 19 20 19 17 18 19 17 14 16 16 16 14 12 11 9 8 9 10 7 3 2 5 6 5 6 6 6 6 8
7 9 8 7 7 6 4 4 5 3 3 2 4 5 3 3 5 7 8 11 14 15 16 17 18 18 18 17 18 18 18 18 18 19 20 20 21 22 21 22 22 20 20 21 18 18 18 18 18 19 21 22 23 22 23 23 21 22 27 30 27 23 23 23 24 24 21 18 19 19 20 20 19 17 16 15 18 21 19 15 13 11 10 10 8 8 8 4 3 6 7 6 6 6 6 8 10
7 9 8 7 5 5 4 4 5 3 2 2 5 7 5 4 6 10 6 7 9 8 8 11 13 14 15 17 18 19 19 19 20 20 21 21 21 21 21 21 21 21 21 21 20 21 20 19 19 20 22 22 22 22 21 22 21 21 24 27 29 28 25 23 24 25 22 19 18 18 18 19 18 17 17 15 18 23 19 13 13 13 13 12 10 9 9 5 4 7 7 6 5 5 7 10 13
6 5 5 6 4 4 5 4 3 3 2 2 3 7 9 10 12 14 11 11 10 8 8 8 11 12 14 16 18 19 19 20 21 21 20 21 21 21 21 21 21 21 21 21 22 22 21 21 22 22 22 22 21 22 22 23 24 26 25 24 28 31 29 25 23 22 22 19 18 18 18 19 18 17 17 13 15 22 19 13 14 16 15 13 12 11 11 7 4 7 7 6 6 6 8 12 14
6 3 2 5 5 5 6 4 3 4 2 3 3 5 5 10 13 11 11 14 12 11 11 9 11 13 15 17 18 19 19 21 21 20 20 21 22 21 22 22 21 22 21 22 22 22 22 22 22 22 21 21 21 22 24 25 26 28 26 24 27 29 30 29 26 23 21 20 20 22 21 18 16 15 14 12 13 18 19 17 15 17 17 15 14 13 12 9 6 7 9 7 6 7 9 13 15
5 2 2 4 4 3 6 4 4 5 4 5 4 5 5 3 7 9 10 12 10 10 11 10 11 12 15 18 18 19 20 21 20 19 20 21 22 22 22 23 22 22 22 22 21 22 23 23 22 23 21 20 21 22 23 24 25 26 24 23 25 27 29 30 31 28 22 21 23 25 25 20 15 14 13 12 12 14 17 19 18 18 18 16 15 14 12 10 9 9 9 7 6 8 11 14 15
3 3 3 4 4 3 6 3 3 2 3 7 6 4 7 4 6 5 7 9 9 10 10 10 11 11 13 16 18 19 20 21 20 20 21 21 22 22 23 24 23 22 22 22 22 23 24 23 23 23 22 22 21 21 21 22 23 23 22 22 22 24 26 28 30 29 24 22 22 22 22 19 15 14 13 11 12 13 16 19 19 19 18 16 15 15 13 11 10 10 10 7 6 10 14 15 14
4 4 3 4 4 4 5 3 2 1 2 7 9 5 5 2 5 3 4 7 8 8 9 10 11 12 13 16 19 20 20 21 21 21 21 21 22 23 24 25 24 23 23 23 23 23 24 25 24 23 23 23 21 20 20 21 22 22 21 21 20 19 20 22 24 25 22 20 17 16 17 16 16 15 13 12 13 15 17 19 21 21 20 17 15 15 14 12 11 10 11 10 8 11 15 14 14
5 4 3 3 4 3 2 3 2 2 3 6 9 9 10 8 5 5 6 8 9 9 11 12 12 13 14 15 19 20 21 23 23 22 22 21 21 23 24 24 24 24 23 23 24 23 24 25 25 24 24 23 21 20 20 21 21 21 19 18 18 19 19 19 20 22 22 17 16 16 16 16 17 16 14 12 14 18 19 19 23 22 20 17 16 15 14 14 13 11 11 12 11 12 15 14 14
3 5 4 3 4 5 3 2 3 3 5 7 8 10 13 14 14 14 14 13 14 14 16 16 16 17 15 16 18 21 23 24 25 24 22 21 20 22 23 24 25 24 24 24 24 24 24 25 25 25 24 23 21 20 20 21 21 20 18 17 18 21 21 20 18 18 19 18 18 19 17 18 18 16 16 14 13 16 16 16 19 19 18 17 16 15 15 16 15 12 11 13 15 15 14 14 13
2 1 3 3 2 4 1 4 3 1 4 8 10 12 13 14 13 15 16 15 16 16 17 17 18 18 18 18 18 21 25 25 25 25 24 22 21 21 23 25 25 25 25 25 25 25 24 25 26 25 24 23 21 21 21 21 21 20 18 17 19 21 24 24 20 17 18 18 19 19 19 20 19 17 18 17 14 14 14 14 16 16 16 17 16 14 16 17 15 14 14 14 16 16 15 13 11
2 2 3 3 3 2 4 6 3 1 4 8 9 11 15 15 13 14 17 17 18 18 17 19 19 19 19 20 21 23 26 27 27 28 28 27 25 24 25 26 27 27 27 27 27 26 26 26 26 25 24 23 22 22 22 21 21 19 18 17 18 19 21 24 23 19 19 18 17 18 20 19 18 18 19 17 15 14 13 14 14 15 16 17 16 15 16 17 15 14 14 14 15 15 15 14 11
2 3 3 3 4 2 4 5 2 2 2 7 8 10 15 16 14 15 18 16 19 21 20 21 21 19 19 20 23 23 24 27 29 30 31 31 30 28 28 29 29 29 29 29 28 27 27 27 26 25 23 23 22 23 23 21 20 19 17 17 18 18 18 20 20 20 19 17 16 17 17 18 19 20 20 17 15 15 14 14 15 16 18 18 17 17 17 17 16 15 15 16 16 14 13 14 13
2 3 3 3 2 1 3 5 3 2 2 6 8 10 13 17 16 18 21 19 20 23 21 22 23 21 21 20 19 18 19 26 29 30 31 31 30 28 29 30 31 31 31 31 29 28 29 29 27 26 24 23 23 24 23 21 21 19 18 18 19 18 17 18 18 19 20 18 17 17 17 19 21 21 20 18 17 15 15 15 17 18 20 20 20 20 19 18 17 17 16 16 16 15 13 13 12
4 3 3 3 0 1 1 2 2 4 3 6 9 9 12 16 15 16 20 19 18 19 19 23 24 23 24 21 17 15 16 20 25 27 30 30 30 29 29 30 30 31 32 32 31 31 31 30 28 26 24 24 24 24 23 21 20 19 19 19 19 19 16 17 21 23 22 20 18 19 19 20 22 21 20 18 17 16 15 16 18 19 20 20 19 19 20 19 19 18 17 15 13 13 13 12 11
5 5 5 4 1 1 2 2 3 4 3 3 8 9 8 9 10 9 8 7 9 13 15 20 23 24 25 22 21 21 20 19 21 25 28 29 29 29 28 28 29 30 32 33 33 32 32 29 28 26 24 25 25 24 23 21 20 20 20 20 21 21 18 20 26 26 22 21 21 21 22 22 22 20 20 19 18 16 15 17 18 19 20 19 19 20 21 21 20 18 17 14 11 10 9 11 10
5 6 7 7 3 2 3 5 5 5 3 1 4 7 4 2 5 5 3 3 5 8 11 16 19 19 20 19 21 23 23 22 22 24 27 27 26 25 25 25 27 29 30 32 32 32 31 29 28 26 24 25 25 25 22 21 21 21 22 23 24 24 21 23 26 22 20 23 23 23 23 23 22 21 20 20 19 17 18 19 19 18 19 20 21 22 22 22 20 18 16 14 13 10 8 9 9
4 2 3 5 2 2 3 4 3 4 4 1 1 5 6 4 7 10 8 7 7 7 9 15 17 13 12 14 16 17 16 17 17 19 22 23 21 21 22 23 25 26 28 30 30 30 30 28 27 25 24 25 26 24 23 22 23 23 23 23 23 22 21 23 23 21 23 25 24 23 23 23 22 21 20 20 20 21 21 21 20 19 20 22 24 24 23 22 20 19 17 16 14 12 11 9 9
2 1 3 2 3 2 2 3 4 4 6 3 4 4 8 7 6 9 11 9 7 8 10 14 14 9 7 7 8 9 10 12 13 14 18 20 20 18 19 21 21 23 25 27 28 29 29 27 25 25 25 26 26 24 24 23 24 24 23 23 22 20 20 22 24 25 25 24 24 25 24 24 23 21 21 22 23 24 24 24 22 22 23 25 25 24 23 22 21 20 19 17 15 13 12 11 9
1 2 2 3 2 0 1 2 4 3 6 5 4 5 6 8 2 3 8 9 7 10 13 12 7 2 3 3 5 8 10 11 12 12 15 17 18 17 17 18 19 20 23 25 26 27 26 24 24 25 25 26 25 25 24 24 24 23 23 23 23 23 23 24 26 27 25 24 25 26 25 25 23 22 23 24 25 26 26 27 26 25 26 26 25 24 24 22 21 20 19 18 16 14 13 12 10
3 4 4 6 3 2 1 3 3 3 6 6 5 7 4 10 4 5 6 7 8 10 10 6 2 4 1 2 5 7 7 7 9 9 11 13 13 14 14 16 17 19 21 23 24 25 23 23 24 25 25 25 26 26 25 25 25 25 25 26 25 26 25 24 26 27 25 25 26 26 25 25 24 22 24 26 27 27 28 29 29 28 28 27 26 25 24 23 21 21 19 18 17 15 14 12 11
8 7 4 4 3 1 1 2 1 3 7 4 3 7 4 7 4 7 6 6 8 8 6 4 4 4 1 2 3 3 2 4 6 7 8 9 10 11 13 15 16 17 19 20 22 23 22 22 24 25 25 26 26 26 26 26 27 28 28 27 26 26 25 24 26 27 26 26 26 25 25 25 24 23 25 27 28 28 30 31 31 30 29 28 27 26 25 24 23 21 19 18 17 15 14 12 11
5 4 4 2 2 2 2 3 2 5 6 0 2 1 3 7 4 5 4 2 3 3 3 3 2 3 1 3 2 2 3 3 4 6 6 7 8 9 11 12 13 15 16 18 20 22 22 23 23 24 26 27 27 27 27 28 29 29 28 27 25 25 24 23 24 26 27 27 27 25 25 25 24 24 26 29 30 31 32 33 32 31 30 29 28 27 26 25 23 21 20 18 17 16 15 14 12
4 4 5 4 4 4 4 4 4 5 3 2 2 2 4 10 8 3 4 4 4 3 1 1 2 1 2 3 5 5 6 5 3 4 4 5 7 8 9 10 12 14 15 17 19 21 23 23 23 25 27 27 28 28 28 29 29 29 29 28 26 25 23 23 24 26 28 28 27 25 24 25 25 25 28 32 33 33 33 33 33 32 31 30 29 28 26 24 23 21 20 20 18 17 17 16 14
7 7 7 6 5 5 6 6 3 4 1 2 1 1 5 10 7 7 11 9 8 6 5 6 8 8 6 7 10 11 11 10 7 5 4 5 7 7 8 10 12 15 16 18 20 22 23 24 24 26 27 28 28 28 28 30 30 29 29 29 28 26 24 24 26 28 29 27 25 23 21 24 25 25 29 34 34 34 34 33 33 32 31 30 29 28 26 24 23 22 21 21 20 19 18 17 15
9 7 6 6 6 6 6 4 4 3 1 1 1 2 5 5 2 1 3 1 2 5 9 13 15 16 16 16 18 18 18 17 15 12 9 8 9 9 9 11 14 16 17 19 21 23 24 24 24 27 28 28 29 28 29 30 30 30 30 30 29 27 25 26 28 30 30 26 25 23 20 24 26 25 30 35 35 35 35 33 33 32 31 30 29 27 26 25 24 23 23 22 21 20 18 17 15
6 4 4 6 4 4 3 1 1 2 2 2 4 4 6 4 7 8 6 4 5 8 11 13 15 19 21 23 26 26 25 24 23 19 14 13 13 13 13 13 15 17 18 20 22 23 24 23 23 26 28 27 28 29 29 30 31 31 32 31 30 28 27 27 29 31 29 25 24 22 20 24 26 27 32 36 36 36 35 33 33 32 31 30 29 28 27 26 25 25 24 24 22 20 19 17 16
4 4 5 2 2 2 2 1 3 2 5 5 5 7 7 7 12 12 11 12 11 10 9 9 11 16 19 24 28 28 25 26 26 22 18 17 18 17 16 16 16 16 18 20 22 23 24 23 22 26 28 28 28 30 30 31 32 33 33 33 31 29 28 29 30 31 28 25 24 23 21 24 27 28 33 37 37 36 34 33 33 32 31 31 30 29 28 27 26 25 25 23 22 20 19 18 17
2 4 4 3 2 1 3 4 2 4 7 6 6 10 9 6 7 2 5 7 7 8 9 9 12 16 17 23 29 27 23 24 24 19 16 19 21 20 18 16 14 15 18 21 22 22 23 23 22 24 29 29 28 30 31 32 34 34 35 35 32 29 28 29 30 30 27 25 25 23 22 25 27 30 35 38 38 36 34 34 33 33 33 32 31 30 29 27 26 26 25 23 22 20 19 18 17
1 2 1 1 2 4 5 5 5 6 8 6 7 11 10 9 9 4 3 6 5 7 9 9 12 14 14 20 27 26 23 23 20 15 15 18 18 17 15 13 12 14 19 21 22 22 23 24 22 23 27 28 28 30 32 33 35 35 35 35 33 29 29 30 31 30 28 26 25 24 24 25 28 31 36 39 38 36 35 35 35 35 33 32 31 30 29 28 27 26 25 24 22 20 19 18 17
2 3 2 1 2 3 4 5 4 5 7 6 7 8 9 9 9 9 10 10 7 7 8 9 11 14 14 16 19 19 21 23 19 15 15 15 14 14 12 10 12 15 18 20 21 22 24 25 23 22 25 28 29 31 33 33 34 34 34 34 33 31 31 33 33 32 30 28 25 25 26 26 28 32 37 39 38 37 36 36 36 36 34 33 32 31 30 28 27 26 25 24 22 20 19 18 17
5 6 6 4 2 0 2 4 3 3 5 6 7 8 9 5 3 6 7 6 7 7 6 7 9 13 14 12 12 13 15 17 17 16 14 12 12 12 11 11 14 16 16 18 21 22 24 25 23 22 25 29 31 32 34 34 34 34 33 32 32 32 34 35 34 33 32 29 26 26 27 27 29 32 37 39 39 38 37 37 37 36 35 33 32 31 30 29 28 28 26 24 22 20 19 18 18
7 8 9 9 7 4 4 5 3 1 4 6 6 9 11 3 2 2 4 2 4 5 5 7 9 11 12 11 12 15 15 15 16 16 14 13 13 13 12 13 15 16 15 15 18 20 23 25 24 23 25 30 32 33 34 34 34 34 34 33 33 33 33 35 35 34 34 31 28 27 29 29 29 33 37 40 40 38 37 37 37 36 35 34 33 32 31 29 29 28 26 24 22 21 20 19 18
Wind_Direction
168 165 161 153 140 135 186 250 242 164 249 107 105 143 99 70 109 135 135 133 135 91 58 72 77 83 340 341 347 4 23 14 13 20 63 131 144 143 153 158 150 148 152 149 149 145 144 142 138 134 125 126 127 124 119 115 113 109 105 96 88 79 71 72 72 71 64 56 50 45 47 51 55 58 61 67 70 72 75 78 79 80 82 84 84 86 88 88 86 85 89 94 95 93 90 86 83
165 162 157 140 137 196 238 236 247 148 172 120 97 75 103 134 164 136 123 97 80 97 101 92 101 99 353 333 314 313 46 49 53 70 100 133 131 132 148 148 145 150 153 152 153 149 148 145 142 137 130 132 132 128 122 122 120 115 110 98 90 81 74 77 78 74 67 59 51 45 47 50 53 56 58 63 68 71 74 79 82 83 84 84 84 87 89 92 95 95 96 94 93 92 88 84 83
161 154 147 131 169 248 247 233 254 181 152 114 99 98 131 159 135 97 89 84 87 107 112 104 118 97 315 260 299 334 58 65 78 90 105 119 121 134 145 145 146 152 157 155 157 155 151 151 148 141 137 136 136 131 124 127 125 121 115 103 96 85 77 82 80 74 66 60 52 44 45 48 51 55 56 60 66 70 73 78 83 86 87 87 87 89 90 93 96 97 100 94 89 89 87 83 83
158 150 142 162 238 232 240 244 286 268 110 107 113 124 155 133 110 96 93 98 101 111 116 125 133 105 294 327 20 13 73 77 103 105 108 131 141 147 154 148 146 155 159 156 159 159 156 156 153 146 140 140 140 133 128 131 130 129 127 115 107 92 81 89 84 73 61 55 51 42 41 43 46 51 53 56 64 70 74 76 80 85 87 88 88 90 90 88 85 85 92 93 89 85 82 80 81
156 155 150 207 259 248 283 269 302 313 65 66 117 134 147 114 114 112 111 111 112 110 112 170 129 118 269 10 0 15 79 85 116 112 112 159 159 150 158 149 146 159 159 157 161 162 161 160 155 148 141 142 141 134 132 132 132 138 136 124 112 100 84 85 83 69 54 49 48 40 37 38 40 45 48 50 58 68 74 77 78 80 85 88 89 89 87 85 90 92 92 90 86 80 78 79 79
147 165 168 231 269 307 275 211 97 71 53 0 98 128 132 119 125 123 125 123 119 113 118 244 1 138 149 118 350 52 116 114 112 127 128 168 176 157 152 148 150 159 159 160 166 167 168 167 158 150 146 147 143 136 137 133 134 141 138 129 117 106 87 78 81 69 53 49 47 41 36 35 37 40 44 46 52 62 68 72 75 78 84 90 92 94 93 94 101 102 95 88 84 81 81 80 78
144 166 185 203 202 248 261 110 68 88 63 0 75 128 134 124 130 132 140 141 142 177 187 246 275 219 132 129 160 138 161 145 140 171 158 169 182 164 148 146 151 161 166 162 170 177 175 174 162 158 155 149 143 138 143 142 139 143 140 135 127 113 90 76 76 66 55 50 49 46 39 36 38 39 42 44 49 57 65 70 71 75 82 87 91 99 105 106 104 99 93 88 86 86 85 81 78
146 168 210 226 188 229 269 89 65 55 76 50 64 100 123 132 140 144 154 154 152 165 185 198 232 254 124 127 141 152 185 159 150 168 167 171 175 171 151 142 153 170 175 165 175 183 177 176 168 168 164 157 152 142 145 150 150 152 148 145 140 125 101 76 59 53 57 50 49 49 43 40 40 41 42 44 50 56 65 73 76 78 80 78 82 97 108 107 104 99 94 91 92 91 87 83 81
159 214 228 241 235 194 136 100 95 71 102 120 95 86 113 139 151 156 157 147 144 153 162 171 216 281 129 143 105 139 198 174 156 158 166 173 174 177 148 138 160 177 180 171 177 183 179 179 179 178 173 179 174 156 152 152 158 161 155 156 154 138 123 99 71 56 59 51 48 48 45 41 39 41 42 44 50 57 66 78 85 86 84 80 83 95 104 106 105 100 98 98 97 93 89 87 84
198 211 243 248 233 188 146 119 114 106 118 122 126 130 137 148 159 168 161 150 152 159 149 167 216 282 146 151 115 148 196 179 172 166 169 173 173 172 144 144 166 173 182 179 176 182 185 186 187 187 183 189 186 173 166 159 161 164 161 162 163 151 148 146 106 83 67 52 48 46 43 39 36 37 40 44 48 54 65 79 90 95 93 91 93 99 104 106 106 104 104 102 99 95 92 90 87
210 197 260 251 208 197 141 116 117 118 127 135 137 144 153 156 164 170 168 150 152 166 156 189 217 185 203 150 120 182 193 184 188 179 172 176 172 171 161 162 166 163 182 188 183 183 190 194 192 192 192 189 187 188 178 167 165 166 166 166 168 163 163 172 128 107 81 50 44 46 42 35 33 35 37 42 47 52 61 75 91 100 102 101 103 105 106 107 108 108 105 102 99 96 94 91 90
229 184 219 241 216 32 73 98 125 125 134 158 157 152 160 162 170 173 180 163 164 185 167 194 209 167 214 146 134 193 190 195 198 189 178 176 175 180 181 175 168 164 177 191 190 187 189 190 190 193 196 195 189 189 184 177 175 170 169 169 172 171 171 180 169 155 120 42 39 45 38 32 32 33 36 42 47 54 60 71 87 100 106 109 110 108 108 108 107 106 103 101 98 96 94 92 90
255 189 223 251 20 16 84 99 121 137 155 171 159 154 163 170 183 180 179 175 174 183 162 182 200 247 223 112 146 185 194 209 205 199 189 182 179 186 188 181 182 178 180 192 192 190 190 184 188 193 193 196 194 191 189 189 186 174 174 175 176 179 180 188 190 179 163 28 23 27 26 28 32 33 34 41 49 57 62 69 79 90 100 104 108 108 107 105 103 102 100 99 98 96 95 92 89
262 215 255 285 97 275 123 107 133 185 169 145 140 148 165 177 189 188 183 182 172 167 153 182 207 241 207 135 155 170 197 214 211 208 201 196 186 185 189 190 199 193 193 199 196 195 196 192 192 195 191 192 197 197 192 194 194 184 184 183 182 185 185 196 200 199 212 220 260 326 5 22 26 30 36 41 48 60 66 70 75 79 87 93 98 100 100 99 98 97 96 96 96 96 95 91 87
212 254 262 231 184 201 171 118 156 225 141 131 140 151 168 182 184 194 209 195 145 165 168 193 214 220 260 132 144 170 205 211 211 214 207 206 200 192 189 196 204 202 205 208 205 207 204 201 200 198 196 195 199 201 196 195 197 194 195 193 194 193 191 201 208 215 227 228 250 287 321 354 10 24 35 43 48 62 73 77 80 83 86 90 93 95 95 95 94 93 92 91 92 92 92 89 84
178 206 240 213 211 202 179 164 161 222 123 129 143 154 169 179 184 198 216 230 119 186 193 195 210 208 11 64 142 180 209 207 210 215 211 210 209 206 195 196 203 205 211 214 214 217 213 211 208 200 199 200 198 201 203 202 203 205 204 200 204 203 197 204 214 220 226 235 244 263 288 296 310 357 26 42 49 65 82 87 89 91 91 92 92 93 93 93 92 90 89 87 87 87 86 83 79
173 206 240 218 204 195 167 169 163 140 106 126 146 163 177 167 180 206 211 218 209 194 197 207 211 211 248 168 168 190 199 207 214 212 212 213 211 215 211 200 201 207 213 214 216 220 222 221 216 205 203 209 204 200 205 210 213 212 209 205 210 211 204 205 213 220 227 237 242 254 279 288 275 235 210 52 59 74 92 98 101 100 98 97 95 94 94 94 92 89 86 83 81 80 80 79 75
182 216 231 232 193 158 144 164 137 49 121 146 157 175 192 166 171 196 207 210 212 212 208 222 225 218 232 222 206 214 201 212 216 214 215 215 213 216 220 214 205 209 215 216 216 218 223 227 227 219 214 223 220 209 206 213 217 214 217 214 214 216 213 212 215 222 231 231 229 246 273 298 280 241 209 194 135 124 111 110 112 110 108 105 101 98 94 92 90 87 84 81 78 76 75 75 74
212 253 231 248 85 77 45 93 92 21 100 146 159 178 198 175 160 183 208 206 200 216 212 213 222 222 232 230 223 229 227 222 220 219 217 216 220 219 223 223 210 215 220 220 220 219 221 224 227 223 221 229 230 218 210 213 219 215 221 222 221 221 215 216 219 226 227 221 223 228 221 229 257 260 249 219 178 168 149 130 129 127 122 115 108 102 95 91 87 83 81 79 78 76 74 74 73
229 260 237 68 80 80 58 68 77 37 45 143 159 172 188 171 151 176 213 221 203 225 222 203 211 219 229 233 230 232 235 234 229 225 220 215 219 220 227 228 214 222 227 223 225 222 220 220 218 219 222 228 231 227 216 211 217 220 227 225 221 222 217 213 216 224 226 225 226 217 208 208 234 259 265 239 208 182 169 157 153 147 139 128 117 108 101 94 86 81 76 73 73 72 73 74 71
195 238 289 50 78 91 85 79 72 56 51 148 150 163 187 173 168 188 214 234 217 231 229 213 224 216 216 228 233 234 237 238 233 229 225 219 217 213 224 232 214 222 236 230 226 222 219 218 215 217 221 226 231 231 221 211 214 221 228 224 218 223 224 221 218 222 228 228 225 215 215 219 229 251 258 242 228 201 183 177 173 167 158 144 132 121 110 100 90 83 74 67 62 63 68 71 71
170 138 41 44 8 76 107 100 82 71 81 143 149 165 179 165 193 210 217 233 227 243 208 204 240 199 195 224 236 234 236 237 234 231 227 223 222 215 216 226 217 223 241 237 227 222 219 220 219 218 220 227 228 225 222 217 216 221 229 226 223 227 226 228 226 224 228 226 227 222 216 223 233 244 252 248 236 216 199 193 186 181 178 164 151 139 123 112 100 88 79 68 54 56 69 72 74
215 113 88 51 19 78 115 121 126 92 85 159 164 164 161 179 215 215 223 235 249 336 240 199 232 210 204 235 238 233 234 235 235 233 230 226 226 220 214 221 227 234 241 235 232 228 221 222 223 219 221 228 227 222 226 226 223 227 232 226 223 230 235 239 233 225 230 232 230 225 219 229 235 238 247 250 239 224 212 207 197 191 195 186 171 157 139 125 111 100 90 75 60 56 69 74 79
278 113 112 72 49 84 101 126 152 114 69 163 161 187 187 210 225 204 230 239 248 268 261 244 246 236 226 239 239 234 235 236 238 236 232 229 228 223 220 225 232 239 240 236 239 234 224 225 225 222 224 231 231 230 233 235 232 230 227 219 216 229 240 243 237 230 234 236 231 228 230 235 235 239 245 246 241 232 219 212 207 204 207 203 184 166 146 124 113 112 109 87 75 71 77 86 89
279 114 117 99 80 90 101 120 133 108 104 132 178 215 202 220 256 265 250 246 241 249 255 255 254 251 241 241 243 240 239 239 239 238 233 230 231 227 226 229 233 239 242 240 238 232 227 226 227 227 229 234 235 236 237 239 239 231 223 220 223 234 238 236 235 235 233 235 238 237 237 238 241 242 239 241 243 239 232 223 216 215 215 212 188 165 148 122 109 113 112 104 101 106 101 96 100
103 117 123 120 105 105 118 126 120 117 129 134 208 217 195 224 271 269 254 246 235 236 247 255 252 251 249 245 247 246 246 246 242 240 237 234 234 233 232 233 236 239 239 238 234 226 224 223 224 227 230 234 235 237 237 237 240 236 228 226 234 238 232 227 230 232 232 240 245 240 235 233 236 235 230 239 244 240 238 229 220 223 229 226 194 165 152 129 114 113 106 112 118 117 104 93 109
110 120 116 113 117 123 137 142 132 131 123 166 246 242 201 194 247 257 236 225 230 236 244 251 249 247 249 248 247 248 247 247 244 241 240 238 236 235 235 234 236 237 234 234 231 225 224 221 220 222 227 231 233 235 236 234 234 240 234 227 231 232 224 227 234 234 235 243 243 238 237 227 221 228 235 248 247 237 232 227 223 228 231 226 208 181 168 140 106 115 110 111 116 112 104 108 122
123 127 117 115 126 135 156 156 146 173 147 176 277 277 240 174 221 240 220 211 217 222 236 249 250 240 242 247 246 246 245 244 242 240 241 241 238 236 235 234 235 235 234 232 228 227 227 224 222 223 225 227 231 232 235 233 228 237 242 229 226 227 224 229 235 234 232 235 237 238 243 234 228 241 247 251 247 234 229 228 225 227 228 221 210 198 185 162 107 113 114 114 121 116 114 124 132
133 151 144 138 164 172 173 165 153 217 189 136 284 279 245 205 223 235 222 229 228 229 242 244 252 245 241 246 247 247 245 242 242 242 241 241 239 237 235 235 235 235 234 231 229 230 229 227 228 228 228 229 230 230 233 234 229 236 247 238 228 227 227 228 231 231 228 230 238 235 238 240 241 246 242 240 237 231 232 234 225 226 227 218 211 205 195 181 134 123 127 131 134 129 128 133 139
150 190 228 156 195 197 168 158 159 217 175 132 244 278 252 206 214 215 209 229 236 241 248 239 242 249 249 250 250 251 247 242 243 243 240 239 238 235 234 235 234 234 235 234 234 236 234 233 235 234 233 233 232 231 232 234 233 239 246 242 235 232 230 229 229 228 227 233 238 236 235 234 228 226 229 233 228 227 232 231 226 227 223 213 209 205 197 187 161 143 143 145 141 136 139 142 144
158 168 239 197 218 168 142 151 172 206 166 149 224 263 278 232 170 177 207 225 228 236 246 245 238 239 250 255 254 252 251 249 247 244 239 237 238 235 234 236 235 236 238 240 240 241 241 240 240 240 238 237 237 236 236 237 237 242 245 242 238 237 234 231 228 226 231 241 241 242 237 220 210 215 224 233 230 228 229 226 225 224 217 211 208 201 195 187 172 157 147 150 150 145 147 147 148
170 179 203 204 233 147 128 135 173 215 148 169 209 248 267 266 125 158 226 220 217 235 246 251 244 237 243 252 256 254 253 253 250 245 239 235 236 236 234 237 239 238 241 245 245 245 246 245 243 243 241 240 241 240 241 241 241 244 245 242 239 237 235 231 228 227 235 242 242 242 231 214 214 221 222 228 229 228 225 222 222 218 212 209 203 195 191 181 171 163 153 158 167 156 153 150 150
187 228 221 177 216 186 142 128 162 244 120 186 216 254 277 245 120 154 237 212 207 230 248 252 248 241 241 249 256 254 253 254 251 245 240 236 235 236 236 239 241 241 243 247 248 248 249 248 245 244 243 243 243 243 244 243 245 246 244 241 238 230 223 221 221 223 228 233 232 226 216 214 221 218 219 227 225 222 219 219 219 213 203 198 193 187 184 177 173 174 166 165 169 160 155 154 153
183 219 241 192 219 228 181 130 129 204 227 219 221 239 260 264 261 245 235 224 218 233 254 259 258 250 244 248 254 255 254 254 251 245 240 238 237 239 241 242 244 245 245 247 250 250 250 250 248 246 245 246 246 245 245 246 247 246 240 236 232 220 208 204 208 214 219 227 229 221 216 220 218 213 218 222 217 214 211 217 217 203 189 187 188 182 179 178 176 181 177 165 165 164 159 159 157
203 197 221 224 211 237 252 136 128 194 227 242 237 241 252 259 264 260 251 241 232 242 257 260 260 256 248 245 249 255 256 254 252 248 241 238 239 244 246 246 247 247 246 247 249 250 249 249 248 246 246 248 248 247 246 246 246 242 237 229 221 213 203 197 202 209 215 225 228 223 220 219 215 215 216 206 200 202 199 205 206 191 182 184 185 182 178 178 177 179 180 167 164 167 164 162 158
341 202 250 264 226 231 188 96 93 242 246 246 247 254 261 260 261 263 260 251 241 246 255 256 255 253 248 243 243 250 256 256 254 251 244 240 243 249 251 250 250 250 249 248 249 249 249 248 247 245 246 248 248 247 245 244 243 240 235 222 212 212 208 206 209 208 213 221 224 220 214 214 216 215 209 194 185 189 187 191 194 188 187 189 189 187 180 178 179 179 181 173 165 165 165 162 157
339 321 280 262 271 257 108 95 92 28 279 260 254 261 269 270 267 267 266 263 257 251 250 251 248 244 243 241 242 248 255 257 255 252 250 249 252 254 253 252 251 250 249 249 249 249 249 248 247 245 244 247 247 245 244 243 241 238 232 219 211 212 211 210 211 212 216 214 209 207 204 207 211 205 198 190 185 187 188 193 200 200 195 193 193 189 180 179 182 180 178 173 167 165 164 163 161
272 268 272 247 255 247 99 92 120 120 278 269 274 275 273 273 273 270 265 258 254 252 250 252 251 247 242 241 243 247 250 254 253 253 254 255 255 254 253 252 251 251 250 250 249 250 250 249 247 244 242 243 242 241 241 240 236 232 226 215 210 207 199 200 206 209 208 195 190 196 196 199 200 195 192 190 190 195 197 202 210 212 203 194 187 183 181 180 178 177 174 169 169 173 169 167 167
234 245 267 261 270 281 104 96 114 169 244 281 298 293 278 276 275 267 261 253 249 251 252 256 259 256 250 245 244 242 241 248 252 253 255 258 257 255 252 251 251 251 251 250 250 250 249 249 247 243 240 239 238 237 238 236 231 224 214 205 206 205 198 200 204 203 195 187 192 199 198 198 195 193 191 188 192 198 202 207 212 211 200 187 180 179 180 178 175 175 176 172 169 174 175 173 173
227 237 249 248 0 319 232 106 136 198 230 298 300 289 275 271 267 261 258 255 253 253 252 255 257 256 255 251 247 241 231 241 251 254 257 259 258 255 252 252 252 250 250 251 250 249 247 247 247 244 240 238 236 236 236 233 227 218 206 201 205 209 212 208 201 199 198 196 198 197 197 199 194 192 191 187 192 199 201 205 206 199 188 179 175 175 175 174 174 175 176 176 170 170 176 177 178
219 220 238 261 327 295 264 359 316 237 206 290 292 285 269 252 248 254 255 251 252 246 243 250 250 251 256 255 252 248 239 239 248 255 259 260 259 257 254 253 252 249 250 251 250 249 248 247 246 244 239 236 236 236 235 228 219 211 201 200 205 210 217 210 196 196 201 199 197 194 195 196 193 192 192 189 192 197 198 196 193 187 179 174 175 175 173 172 174 173 172 172 169 170 173 174 177
221 209 228 254 310 341 293 339 329 278 226 170 317 303 284 205 233 244 196 179 224 219 226 246 250 249 250 250 253 256 256 254 251 252 259 263 261 258 254 251 249 248 248 251 251 249 249 247 244 242 237 235 236 235 231 222 213 207 202 204 207 210 214 205 196 201 207 202 196 193 191 192 191 192 193 193 191 192 192 187 186 187 183 180 178 177 176 173 171 169 167 167 168 170 169 167 171
242 218 253 248 266 341 299 316 308 290 295 187 73 295 286 275 251 242 221 215 234 230 238 252 256 251 234 236 254 262 264 263 254 246 251 259 258 253 251 248 247 248 248 251 251 249 249 247 242 239 235 234 235 232 227 218 209 204 203 207 209 212 214 208 208 217 213 202 196 192 190 190 191 193 195 196 193 189 187 186 189 193 192 186 180 178 176 172 168 166 166 168 168 164 165 165 165
249 18 348 210 195 227 254 296 268 288 319 292 174 221 273 281 257 234 221 221 241 246 247 254 258 253 220 221 249 254 253 258 257 247 242 249 253 250 248 248 248 248 248 250 251 248 249 248 241 235 233 232 232 230 224 216 209 202 202 205 209 215 218 218 222 220 208 201 198 194 192 192 194 197 198 197 195 190 189 192 196 197 192 185 178 176 175 170 168 167 168 169 167 163 165 168 169
32 42 20 96 111 172 187 276 276 297 317 286 182 175 264 282 272 166 194 199 212 234 243 253 253 196 170 195 228 247 256 257 258 252 241 242 249 250 248 248 249 247 247 250 250 250 250 246 238 232 231 229 228 227 221 214 208 204 205 208 212 221 225 224 223 214 205 203 202 197 194 195 199 201 200 198 197 195 196 198 199 193 186 181 176 174 173 171 169 170 170 168 168 168 169 171 176
136 133 86 88 97 84 130 268 289 296 283 267 184 167 259 289 264 147 164 191 204 225 235 236 143 110 131 259 255 267 272 256 250 243 237 238 241 244 242 243 245 245 246 249 250 251 250 244 236 231 230 228 225 225 219 211 207 206 211 213 217 225 225 218 213 210 208 207 204 200 198 200 203 204 203 200 199 200 199 196 191 187 182 178 176 174 173 173 172 173 173 172 171 172 172 173 177
139 145 116 109 142 135 205 248 291 275 262 267 176 173 207 291 271 151 163 201 203 207 198 165 110 103 86 323 293 276 259 228 224 218 221 225 227 230 231 236 242 244 247 249 250 251 249 243 235 230 229 227 224 222 216 209 206 208 212 214 218 220 213 206 206 210 212 206 203 204 204 206 208 207 206 202 199 197 191 187 184 183 181 178 176 176 176 177 177 176 175 175 176 176 176 179 182
153 164 163 177 203 181 212 202 178 247 245 306 8 277 216 251 249 134 143 218 209 191 162 155 113 103 98 310 271 206 203 203 194 199 207 209 218 225 226 233 239 244 250 251 251 252 247 242 234 228 228 225 222 220 215 210 207 209 211 212 212 208 203 205 212 216 212 205 206 208 209 211 210 209 207 201 196 191 186 184 183 182 182 180 179 179 180 180 179 179 178 179 181 182 183 188 190
202 196 179 211 226 203 227 208 189 238 231 102 20 344 247 246 254 239 239 245 221 217 202 215 268 241 209 261 259 235 222 217 198 204 214 210 220 227 228 236 243 248 254 254 253 252 247 242 233 227 227 224 222 219 214 210 209 210 209 208 208 206 206 213 220 219 212 209 211 212 214 215 212 212 207 197 192 188 185 185 184 183 183 182 182 182 182 183 182 182 184 186 186 188 191 193 194
199 197 185 204 215 220 234 219 221 248 201 74 66 128 250 262 275 255 243 236 221 225 239 249 263 259 241 248 261 257 241 235 231 228 234 230 230 233 238 248 251 252 255 255 255 254 248 243 233 227 226 223 222 220 214 210 210 208 208 208 210 212 213 216 221 218 213 214 217 216 219 218 214 214 206 195 191 189 186 186 186 185 185 184 185 185 185 186 187 188 191 192 193 195 196 196 196
199 206 202 214 221 238 246 232 256 270 128 116 157 193 240 260 350 306 253 268 237 235 232 236 248 253 254 256 258 259 252 246 243 239 242 245 243 242 248 257 258 257 257 256 256 255 252 246 235 229 227 224 221 219 214 211 210 209 209 210 213 215 214 217 220 216 212 218 222 218 220 217 215 216 206 195 192 190 188 188 189 188 187 187 188 188 189 190 192 195 197 198 199 200 200 198 198
192 197 220 234 237 251 270 292 347 9 350 223 197 239 251 267 299 279 251 239 226 218 218 225 240 249 254 257 256 257 255 254 252 244 239 242 246 247 255 265 264 260 259 258 258 257 257 252 239 231 230 226 222 219 215 212 212 212 212 211 214 216 215 217 218 213 213 220 222 220 223 220 218 216 206 197 194 192 191 191 191 190 190 191 191 192 194 195 197 200 202 203 203 202 202 200 202
168 175 204 220 4 321 248 216 88 84 271 251 210 248 269 287 289 266 233 234 233 216 204 207 230 243 247 249 253 254 255 258 257 250 242 244 247 250 261 268 266 266 267 264 262 261 261 260 246 233 230 227 223 219 216 213 213 213 212 212 214 215 215 215 213 212 216 219 218 221 226 225 223 217 206 199 196 195 194 193 193 194 194 194 195 197 198 199 202 204 206 205 205 204 203 202 206
158 187 186 124 48 330 239 245 238 213 250 256 218 242 265 271 274 256 163 209 223 212 208 210 227 236 238 244 251 255 257 261 260 257 252 250 250 254 260 263 266 275 277 270 266 263 262 262 252 236 229 228 225 221 219 217 214 212 213 214 214 214 214 212 209 212 217 216 216 222 228 229 227 218 207 202 200 198 196 196 197 197 197 198 199 200 201 203 205 207 208 207 206 205 205 206 209
354 295 209 138 218 218 200 220 245 238 244 257 243 249 259 245 246 263 207 212 206 191 198 210 227 231 232 244 252 255 257 259 261 266 265 257 254 252 251 256 268 277 277 273 268 263 261 260 256 242 231 228 227 225 222 220 216 213 214 217 216 213 212 210 210 214 213 212 217 224 228 230 227 218 209 205 203 201 200 200 200 200 201 201 202 204 205 206 208 210 210 207 206 206 207 208 212
0 306 249 217 262 243 212 205 229 245 241 255 264 260 256 245 248 259 251 242 235 212 204 209 224 233 237 245 253 256 256 255 256 265 270 262 249 242 239 249 266 270 273 275 269 263 262 261 258 248 234 228 226 226 224 221 218 215 214 217 217 214 212 211 213 215 211 209 217 225 228 229 227 218 211 207 205 204 203 204 203 204 204 204 205 206 208 208 209 211 211 208 206 206 207 210 214
186 217 208 195 189 257 285 239 224 248 246 251 263 264 263 260 250 255 253 243 228 216 214 213 219 236 241 240 251 258 258 261 262 260 259 252 236 231 232 241 254 259 267 275 272 266 265 263 259 249 237 230 227 226 226 223 219 216 214 215 217 217 215 213 214 217 212 209 217 225 226 226 225 218 212 209 208 207 207 208 207 207 207 207 208 209 210 210 211 212 211 209 208 207 210 213 216
192 204 204 203 191 174 223 226 198 215 249 249 258 267 268 260 108 245 250 227 213 192 201 228 234 242 243 240 250 258 262 271 271 257 242 231 221 219 225 235 246 253 258 270 274 270 267 265 261 249 238 234 231 228 227 225 220 217 214 214 216 218 215 213 215 218 214 210 217 225 225 223 222 217 213 211 211 210 211 211 211 211 210 210 211 212 212 212 213 214 212 210 209 210 212 215 217